Hourly Data Report for October 06, 2015

All times are specified in Local Standard Time (LST). Add 1 hour to adjust for Daylight Saving Time where and when it is observed.

MONCTON INTL A
NEW BRUNSWICK

46°06'44.000" N
64°40'43.000" W
70.70 m
8103201
71705
YQM

Download Data

Hourly Data (October 2015)
Hourly Data Report for October 6, 2015
Temp Definition
°C
Dew Point Temp Definition
°C
Rel Hum Definition
%
Wind Dir Definition
10's deg

Wind Spd Definition
km/h
Visibility Definition
km
Stn Press Definition
kPa
Hmdx Definition


Wind Chill Definition


Weather Definition


TIME
00:00 Legend Double Dagger 7.4 6.8 96 14 8 24.1 100.99     LegendNANA
01:00 Legend Double Dagger 9.4 7.9 90 13 8 24.1 100.92     LegendNANA
02:00 Legend Double Dagger 7.4 7.0 97 25 7 24.1 100.88     Mainly Clear
03:00 Legend Double Dagger 7.2 7.1 99 23 7 9.7 100.83     Fog
04:00 Legend Double Dagger 5.4 5.4 100 22 10 0.6 100.78     Fog
05:00 Legend Double Dagger 5.1 5.1 100 27 4 1.2 100.75     Fog
06:00 Legend Double Dagger 4.5 4.5 100 19 5 1.6 100.71     Fog
07:00 Legend Double Dagger 5.2 5.2 100 23 4 24.1 100.69     LegendNANA
08:00 Legend Double Dagger 7.3 7.3 100 24 4 24.1 100.67     Mainly Clear
09:00 Legend Double Dagger 10.6 9.4 92 25 7 24.1 100.64     LegendNANA
10:00 Legend Double Dagger 14.2 9.9 75 34 3 24.1 100.59     LegendNANA
11:00 Legend Double Dagger 16.1 9.6 65 36 5 24.1 100.55     Mainly Clear
12:00 Legend Double Dagger 15.4 8.7 64 2 8 24.1 100.50     LegendNANA
13:00 Legend Double Dagger 15.5 9.5 67 2 16 24.1 100.43     LegendNANA
14:00 Legend Double Dagger 17.2 9.5 60 2 9 24.1 100.36     Mainly Clear
15:00 Legend Double Dagger 17.2 9.5 60 5 13 24.1 100.33     LegendNANA
16:00 Legend Double Dagger 16.2 8.8 61 6 10 24.1 100.29     LegendNANA
17:00 Legend Double Dagger 14.4 9.7 73 5 9 24.1 100.26     Mainly Clear
18:00 Legend Double Dagger 11.0 9.3 89 5 8 24.1 100.23     LegendNANA
19:00 Legend Double Dagger 10.0 9.6 97 5 5 24.1 100.26     LegendNANA
20:00 Legend Double Dagger 9.4 9.1 98 36 3 24.1 100.25     Mainly Clear
21:00 Legend Double Dagger 9.0 7.9 93 17 4 24.1 100.22     LegendNANA
22:00 Legend Double Dagger 9.3 8.7 96 21 9 24.1 100.22     LegendNANA
23:00 Legend Double Dagger 7.8 7.7 99 21 4 3.2 100.19     Fog

Notes on Data Quality.

Legend

  • E = Estimated
  • M = Missing
  • NA = Not Available
  • ‡ = Partner data that is not subject to review by the National Climate Archives
Date modified: